New Orleans Lakefront, LA

7:34 PM CDT on June 25, 2017 (GMT -0500)
Lakefront

Weather History for KNEW - January, 2013

Change the Weather History Date:

Monday, January 14, 2013

  Actual Average Record
Temperature  
Mean Temperature 48 °F 53 °F  
Max Temperature 53 °F 62 °F 80 °F (1971)
Min Temperature 43 °F 44 °F 24 °F (1964)
Degree Days  
Heating Degree Days 17 12  
Month to date heating degree days 123 168  
Since 1 July heating degree days 531 649  
Cooling Degree Days 0 0  
Month to date cooling degree days 16 10  
Year to date cooling degree days 16 10  
Moisture  
Dew Point 48 °F    
Average Humidity 93    
Maximum Humidity 100    
Minimum Humidity 86    
Precipitation  
Precipitation 0.23 in 0.16 in 1.24 in (1966)
Month to date precipitation 5.36 2.30  
Year to date precipitation 5.36 2.30  
Snow  
Snow 0.00 in - - ()
Month to date snowfall 0.0  
Since 1 July snowfall 0.0  
Snow Depth 0.00 in    
Sea Level Pressure  
Sea Level Pressure 30.08 in    
Wind  
Wind Speed 12 mph (NNE)    
Max Wind Speed 22 mph    
Max Gust Speed 36 mph    
Visibility 4 miles    
Events Fog , Rain    
T = Trace of Precipitation, MM = Missing Value Source: NWS Daily Summary

Daily Weather History Graph

Daily Weather History Graph

Search for Another Location

Airport or City:

Trip Planner

Search our weather history database for the weather conditions in past years. The results will help you decide how hot, cold, wet, or windy it might be!

Date:

Astronomy

Jan. 14, 2013 Rise Set
Actual Time 6:56 AM CST 5:21 PM CST
Civil Twilight 6:31 AM CST 5:47 PM CST
Nautical Twilight 6:01 AM CST 6:17 PM CST
Astronomical Twilight 5:32 AM CST 6:46 PM CST
Moon 8:47 AM CST (1/14) 8:48 PM CST (1/14)
Length of Visible Light 11h 16m
Length of Day
10h 25m
Waxing Crescent, 11% of the Moon is Illuminated
Jan 14
Waxing Crescent
Jan 18
First Quarter
Jan 26
Full
Feb 3
Last Quarter
Feb 10
New

Hourly Weather History & Observations

Time (CST) Temp. Windchill Dew Point Humidity Pressure Visibility Wind Dir Wind Speed Gust Speed Precip Events Conditions
12:25 AM 55.4 °F - 50.0 °F 82% 30.07 in 4.0 mi North 18.4 mph - 0.03 in Rain Rain
12:37 AM 55.4 °F - 50.0 °F 82% 30.07 in 6.0 mi North 13.8 mph - 0.04 in Rain Rain
12:53 AM 55.0 °F - 50.0 °F 83% 30.04 in 6.0 mi NNE 16.1 mph - 0.06 in Rain Rain
1:31 AM 53.6 °F - 48.2 °F 82% 30.07 in 1.8 mi North 17.3 mph - 0.14 in Rain Rain
1:40 AM 53.6 °F - 48.2 °F 82% 30.08 in 2.0 mi North 16.1 mph - 0.19 in Rain Rain
1:51 AM 53.6 °F - 48.2 °F 82% 30.08 in 4.0 mi North 15.0 mph - 0.22 in Rain Rain
1:53 AM 54.0 °F - 48.9 °F 83% 30.06 in 4.0 mi North 16.1 mph - 0.22 in Rain Rain
2:08 AM 53.6 °F - 48.2 °F 82% 30.08 in 2.5 mi North 17.3 mph - 0.07 in Rain Rain
2:23 AM 53.6 °F - 48.2 °F 82% 30.08 in 1.8 mi NNE 16.1 mph - 0.19 in Rain Rain
2:29 AM 53.6 °F - 48.2 °F 82% 30.07 in 2.0 mi NNE 18.4 mph - 0.23 in Rain Rain
2:43 AM 53.6 °F - 48.2 °F 82% 30.08 in 4.0 mi NNE 17.3 mph - 0.26 in Rain Rain
2:53 AM 54.0 °F - 48.9 °F 83% 30.05 in 3.0 mi NNE 15.0 mph - 0.28 in Rain Rain
3:01 AM 53.6 °F - 48.2 °F 82% 30.07 in 2.5 mi NNE 15.0 mph - 0.04 in Rain Rain
3:10 AM 53.6 °F - 48.2 °F 82% 30.07 in 6.0 mi NNE 13.8 mph - 0.04 in Rain Rain
3:53 AM 54.0 °F - 48.9 °F 83% 30.04 in 9.0 mi NNE 16.1 mph - 0.05 in Rain Rain
4:22 AM 53.6 °F - 48.2 °F 82% 30.04 in 10.0 mi NE 12.7 mph - N/A Rain Rain
4:37 AM 53.6 °F - 48.2 °F 82% 30.05 in 10.0 mi NNE 13.8 mph - N/A Rain Rain
4:53 AM 54.0 °F - 48.0 °F 80% 30.04 in 10.0 mi NE 13.8 mph - 0.00 in Rain Rain
6:53 AM 54.0 °F - 48.9 °F 83% 30.06 in 4.0 mi NNE 10.4 mph - 0.00 in Rain Rain
7:46 AM 53.6 °F - 48.2 °F 82% 30.09 in 3.0 mi NE 10.4 mph - 0.00 in Rain Rain
7:53 AM 54.0 °F - 48.9 °F 83% 30.07 in 2.5 mi NE 11.5 mph - 0.00 in   Haze
8:08 AM 53.6 °F - 48.2 °F 82% 30.10 in 4.0 mi NE 11.5 mph - N/A   Haze
8:22 AM 53.6 °F - 48.2 °F 82% 30.10 in 2.0 mi NE 11.5 mph - N/A   Haze
11:49 AM 55.4 °F - 51.8 °F 88% 30.07 in 0.8 mi NE 5.8 mph - N/A   Haze
12:22 PM 55.4 °F - 51.8 °F 88% 30.06 in 0.8 mi NNE 6.9 mph - N/A   Mist
12:43 PM 55.4 °F - 51.8 °F 88% 30.06 in 0.5 mi North 8.1 mph - N/A Fog Fog
12:53 PM 55.4 °F - 51.8 °F 88% 30.06 in 0.8 mi North 9.2 mph - N/A   Overcast
1:16 PM 55.4 °F - 51.8 °F 88% 30.06 in 1.0 mi NNW 12.7 mph - N/A   Haze
1:53 PM 55.0 °F - 51.1 °F 86% 30.03 in 1.2 mi North 10.4 mph - N/A   Overcast
2:53 PM 55.0 °F - 51.1 °F 86% 30.05 in 1.2 mi North 15.0 mph - N/A   Overcast
3:53 PM 54.0 °F - 48.9 °F 83% 30.09 in 2.0 mi North 18.4 mph - 0.00 in   Haze
4:53 PM 52.0 °F - 46.9 °F 83% 30.10 in 2.0 mi North 20.7 mph - 0.02 in   Haze
5:03 PM 51.8 °F - 46.4 °F 82% 30.12 in 2.0 mi North 19.6 mph - N/A   Overcast
5:53 PM 50.0 °F - 45.0 °F 83% 30.12 in 2.0 mi North 21.9 mph - 0.00 in   Haze
6:00 PM 48.2 °F - 44.6 °F 87% 30.13 in 4.0 mi North 23.0 mph - 0.00 in Rain Light Rain
6:53 PM 48.0 °F - 43.0 °F 83% 30.12 in 5.0 mi North 19.6 mph - 0.00 in   Haze
7:53 PM 46.0 °F 38.5 °F 41.0 °F 83% 30.12 in 7.0 mi North 19.6 mph - N/A   Overcast
8:36 PM 48.2 °F - 42.8 °F 82% 30.11 in 10.0 mi NE 17.3 mph - 0.03 in   Overcast
8:53 PM 50.0 °F - 44.1 °F 80% 30.09 in 10.0 mi NE 17.3 mph - 0.03 in   Overcast
9:11 PM 50.0 °F - 44.6 °F 82% 30.10 in 10.0 mi NE 13.8 mph - N/A   Overcast
9:53 PM 51.1 °F - 45.0 °F 80% 30.08 in 10.0 mi NNE 15.0 mph - 0.00 in   Overcast
10:53 PM 50.0 °F - 45.0 °F 83% 30.07 in 10.0 mi NNE 11.5 mph - 0.00 in   Overcast
11:53 PM 51.1 °F - 45.0 °F 80% 30.06 in 4.0 mi NE 11.5 mph - 0.02 in Rain Rain